Lapse_Rate
4.5 4.6 5.0 5.7 6.0 6.2 6.3 6.4 6.2 6.4 6.3 6.2 6.2 6.0 6.0 6.0 5.7 5.7 5.5 5.8 5.7 5.7 5.6 4.7 4.7 5.0 5.5 5.9 6.1 6.5 6.0 6.4 7.2 7.5 7.8 7.3 6.8 6.5 6.4 6.5 7.0 6.8 6.6 7.3 6.9
4.4 4.5 5.1 5.7 6.1 6.4 6.5 6.4 6.2 6.1 6.2 6.2 6.4 6.4 6.1 5.7 5.5 5.7 6.0 6.0 6.3 5.8 5.9 5.3 4.6 4.8 5.0 5.9 5.8 5.7 5.9 6.4 7.4 7.7 8.0 7.1 6.7 6.9 6.6 6.5 6.8 6.6 6.5 6.9 6.6
4.4 4.7 5.1 5.8 6.1 6.3 6.5 6.3 6.1 6.1 6.3 6.1 6.2 6.0 5.9 6.0 6.2 6.6 6.8 6.6 6.3 5.8 6.2 5.8 4.9 4.7 4.9 5.5 5.6 5.9 6.3 6.9 7.8 7.5 7.3 7.1 7.0 6.8 6.5 6.3 6.5 6.5 6.5 6.5 6.5
4.6 4.8 5.3 5.8 6.0 6.2 6.4 6.1 5.9 5.7 5.6 5.8 5.6 6.0 6.1 6.2 6.2 6.5 6.6 6.6 6.5 6.4 6.4 6.3 5.4 4.9 4.8 5.0 5.9 6.0 6.9 7.4 7.4 7.4 7.1 6.7 6.8 6.8 6.5 6.1 6.0 6.2 6.5 6.4 6.4
4.8 5.0 5.4 6.1 6.1 6.3 6.3 6.1 5.7 5.5 5.6 5.7 5.8 6.0 6.2 6.3 6.4 6.5 6.6 6.8 6.5 6.5 6.4 6.3 6.1 5.4 4.8 4.8 5.7 5.9 7.0 6.4 6.8 7.1 6.9 6.6 6.8 6.7 6.4 6.1 5.9 6.1 6.4 6.4 6.4
5.0 5.2 5.6 6.3 6.4 6.4 6.3 6.2 6.0 5.6 5.4 5.5 6.1 6.2 6.1 6.2 6.3 6.6 6.4 6.4 6.5 6.5 6.1 6.2 6.3 5.9 5.4 5.4 5.5 6.1 6.4 6.4 6.6 6.6 6.7 6.8 6.6 6.3 6.2 6.3 6.0 6.0 6.2 6.2 6.3
5.1 5.3 5.7 6.2 6.7 6.6 6.3 6.2 6.0 5.5 5.6 5.6 5.7 6.1 6.0 6.2 6.2 6.4 6.4 6.4 6.3 6.3 6.2 6.5 6.0 5.8 5.5 5.5 5.9 6.7 6.1 6.3 6.2 6.6 6.8 6.5 6.6 6.0 6.5 6.3 6.1 6.0 6.0 6.2 6.2
5.1 5.2 5.6 6.0 6.6 6.7 6.8 6.3 6.4 6.1 5.7 5.7 5.9 5.9 5.8 5.6 5.8 5.9 6.0 6.2 6.0 6.1 5.8 5.9 5.5 5.7 5.4 6.0 6.1 6.1 5.9 6.1 5.8 6.3 6.6 6.6 6.6 6.4 6.4 6.3 6.0 6.0 6.0 6.1 6.0
5.1 5.2 5.4 5.9 6.3 6.6 6.8 6.7 6.5 6.3 6.1 5.9 5.8 5.8 5.8 5.3 5.5 5.7 5.9 6.0 5.9 6.1 5.8 5.8 5.7 5.8 5.8 5.5 5.8 5.7 5.8 6.1 6.0 6.4 6.4 6.4 6.4 6.5 6.4 6.1 6.0 5.9 5.9 5.9 5.9
5.1 5.2 5.4 5.8 6.3 6.5 6.6 6.8 6.4 6.4 6.5 6.4 5.6 5.7 5.4 5.4 5.5 5.8 5.7 5.6 5.8 5.9 5.8 5.8 5.7 6.0 5.6 5.5 5.5 5.7 6.1 6.5 6.3 6.2 6.4 6.7 6.1 6.4 6.2 6.0 6.0 5.8 5.9 5.9 5.9
5.2 5.1 5.2 5.5 5.9 6.3 6.5 6.9 6.3 6.4 6.6 6.3 5.8 5.6 5.3 5.4 5.7 5.5 5.6 5.7 5.6 5.5 5.4 5.3 6.1 6.2 6.4 6.1 6.4 6.6 7.0 7.2 6.5 6.3 6.6 6.7 6.3 6.4 6.4 6.1 6.0 5.9 5.8 5.9 5.7
5.5 5.2 5.2 5.4 5.7 6.0 6.2 6.5 6.7 6.7 6.5 6.5 6.2 5.7 5.7 5.5 5.7 5.6 5.7 5.8 5.6 5.4 5.4 5.7 6.0 6.8 7.6 7.1 6.9 6.8 7.3 7.0 6.1 6.4 6.6 6.6 6.3 6.5 6.4 6.1 5.9 5.9 5.9 5.8 5.7
5.9 5.6 5.5 5.5 5.6 5.8 6.1 6.4 6.6 6.6 6.5 6.7 6.6 6.3 6.1 6.1 6.0 6.0 5.9 5.8 5.5 5.6 5.8 6.1 6.4 6.8 7.1 7.3 7.2 7.3 7.5 6.8 6.5 6.7 6.8 6.7 6.4 6.3 6.2 6.3 6.2 6.2 6.0 6.1 6.1
6.1 5.9 5.7 5.7 5.7 5.9 6.0 6.2 6.4 6.7 6.6 6.6 6.8 6.8 6.8 6.4 6.1 6.4 6.3 6.5 6.3 6.5 6.2 6.5 6.8 7.0 7.4 7.6 7.3 6.8 6.8 6.3 6.7 6.5 6.4 6.5 6.3 6.2 6.2 6.1 6.1 6.1 5.9 6.0 6.2
6.2 6.1 6.0 5.7 5.7 5.9 6.1 6.2 6.3 6.5 6.3 6.8 6.7 6.6 7.0 6.9 7.0 6.9 6.8 6.7 6.8 7.0 7.0 6.8 6.8 7.1 7.1 7.6 7.4 7.0 6.6 6.6 6.5 6.4 6.6 6.6 6.7 6.5 6.2 6.3 6.3 6.3 6.2 6.3 6.4
6.2 6.2 6.1 5.9 5.6 5.8 6.0 6.2 6.4 6.5 6.0 6.6 6.6 6.7 6.8 7.1 7.3 7.3 7.3 7.3 7.0 7.0 7.1 7.2 7.1 7.4 7.7 7.7 7.6 7.4 7.3 7.0 6.7 6.7 5.5 6.5 6.4 6.3 6.5 6.4 6.4 6.6 6.5 6.6 6.7
6.4 6.3 6.2 6.2 5.7 5.6 5.7 6.1 6.3 6.3 6.2 6.4 6.4 6.5 6.8 7.1 7.3 7.4 7.4 7.4 7.6 7.3 7.4 7.3 7.6 7.6 7.9 7.5 7.6 7.6 7.4 6.9 5.5 5.1 4.5 6.4 6.5 6.1 6.2 6.1 6.4 6.8 7.0 7.0 6.9
6.5 6.5 6.4 6.3 6.1 5.7 5.8 5.7 6.1 6.2 6.2 6.4 6.4 6.5 6.6 6.7 7.0 7.3 7.3 7.6 7.6 7.8 7.7 7.6 7.5 7.8 7.7 7.8 7.3 7.5 7.5 7.1 5.0 4.2 4.0 6.2 6.4 6.1 6.6 6.4 6.7 7.1 7.0 7.0 7.1
6.1 6.3 6.4 6.5 6.2 6.2 5.9 5.9 5.2 5.9 6.2 6.3 6.3 6.4 6.4 6.7 6.8 6.9 6.9 7.1 7.3 7.6 7.5 7.5 7.6 7.5 7.6 7.6 7.7 7.3 7.4 7.2 6.9 6.7 6.5 6.9 6.2 6.6 6.9 6.7 6.8 6.8 6.9 7.0 7.0
6.2 6.3 6.3 6.4 6.4 6.4 6.3 6.1 6.0 5.8 5.9 6.2 6.0 6.4 6.3 6.6 6.7 6.6 6.6 6.9 7.1 7.5 7.5 7.3 7.2 7.1 7.3 7.2 7.4 7.4 7.3 7.2 7.0 4.9 5.5 6.3 6.6 7.1 7.3 7.3 7.2 7.2 7.1 7.0 6.8
6.5 6.4 6.2 6.3 6.3 6.3 6.4 6.3 6.1 5.9 5.8 5.9 6.2 6.1 6.4 6.6 6.7 6.7 6.8 6.9 7.1 7.2 7.3 7.2 6.9 6.7 6.6 6.7 6.9 7.0 6.8 7.0 6.9 6.7 4.5 4.4 6.3 7.1 7.3 7.4 7.2 7.0 7.0 6.7 6.4
6.5 6.6 6.5 6.3 6.3 6.4 6.4 6.2 6.0 5.9 5.8 5.9 5.8 6.2 6.4 6.4 6.6 6.7 6.6 6.7 6.7 6.9 7.0 7.0 6.6 6.7 6.5 6.6 6.7 6.9 6.7 6.7 6.6 6.4 6.4 6.0 6.8 7.2 7.3 7.1 7.0 7.0 6.8 6.5 6.3
6.3 6.3 6.3 6.3 6.6 6.5 6.5 6.4 6.2 6.0 6.0 5.9 5.9 5.8 5.9 6.2 6.3 6.4 6.6 6.6 6.5 6.6 6.7 6.6 6.6 6.6 6.7 6.4 6.4 6.4 6.6 6.6 6.6 6.4 6.2 5.2 6.5 7.2 7.2 7.2 7.1 6.9 6.6 6.3 6.1
6.2 6.2 6.4 6.3 6.2 6.3 6.4 6.4 6.4 6.3 6.0 5.9 5.8 5.8 5.8 5.8 5.9 6.1 6.2 6.4 6.4 6.4 6.3 6.3 6.4 6.5 6.6 6.7 6.8 6.7 6.7 6.4 5.9 5.7 6.3 6.3 6.6 6.8 6.7 6.6 6.7 6.6 6.5 6.3 6.3
5.9 6.1 6.1 6.2 6.3 6.3 6.2 6.3 6.4 6.3 6.4 6.2 6.1 5.8 5.7 5.7 5.7 5.8 5.9 6.0 6.1 6.2 6.1 6.0 6.0 6.2 6.3 6.5 6.6 6.6 6.7 6.6 6.5 7.0 6.2 6.4 6.3 6.2 6.7 6.8 6.5 6.4 6.4 6.3 6.1
5.9 5.8 5.9 6.0 6.1 6.1 6.2 6.4 6.4 6.3 6.1 6.2 6.2 6.2 5.9 5.8 5.8 5.6 5.6 5.7 5.9 5.9 6.0 6.0 5.7 5.9 6.1 6.0 6.1 6.1 6.2 6.3 6.4 6.5 6.4 6.4 6.4 6.1 6.0 6.1 6.1 5.9 5.8 5.6 5.4
5.9 5.8 5.7 6.0 6.1 6.0 6.2 6.2 6.2 6.2 6.2 6.1 5.9 5.9 5.9 5.8 5.6 5.8 5.7 5.6 5.6 5.5 5.6 5.6 5.7 5.5 5.3 5.6 5.6 5.8 6.8 6.7 6.6 6.7 6.8 6.4 6.8 6.4 6.1 6.1 6.2 5.8 5.7 5.5 5.4
Wind_Speed
17 17 17 19 19 19 19 22 20 19 27 26 11 8 8 7 6 9 9 9 8 13 6 6 9 6 7 6 11 7 3 9 13 10 9 11 9 2 3 6 4 6 5 18 16
16 17 17 18 18 18 16 17 19 15 18 22 25 10 5 10 11 11 2 6 8 9 5 9 10 8 6 9 5 5 4 11 11 9 4 11 11 8 5 8 5 8 15 17 14
15 16 17 17 18 19 17 12 13 10 14 17 19 19 15 9 10 4 6 6 9 5 2 1 5 8 10 7 9 6 5 8 11 6 4 12 9 9 5 7 9 12 14 13 13
15 15 15 17 17 18 18 14 9 8 10 15 17 15 6 0 3 2 9 11 8 6 5 3 4 4 10 10 12 5 12 5 4 4 5 9 7 7 3 4 7 17 17 14 13
15 17 17 17 17 18 18 16 11 8 6 9 12 13 3 4 5 6 10 11 7 4 4 3 2 8 10 12 14 13 8 8 6 5 5 9 2 3 8 6 4 17 15 13 12
14 16 17 16 17 17 17 15 12 11 9 6 6 6 5 8 4 9 9 3 5 4 4 6 8 9 8 11 13 8 7 8 4 6 5 6 5 4 5 5 8 9 10 10 9
16 16 17 17 17 17 15 12 10 10 8 6 5 5 13 8 8 8 6 5 6 4 2 3 1 6 6 8 11 7 8 7 5 5 2 2 3 1 7 7 8 9 8 8 9
18 18 17 18 18 17 15 11 8 10 6 4 5 5 5 3 9 8 7 8 7 5 4 1 9 17 13 5 3 8 8 6 4 6 0 3 5 7 6 8 9 9 8 8 9
20 20 19 18 19 19 15 6 2 2 4 4 3 2 3 5 3 10 9 6 5 4 5 7 12 11 2 6 4 8 7 7 5 5 6 6 8 7 6 6 8 9 9 7 8
19 19 19 19 19 20 18 3 3 2 5 4 3 4 3 5 3 7 4 5 3 3 1 2 5 3 4 5 6 7 10 9 8 6 6 7 6 6 4 5 8 8 10 8 9
19 18 18 19 20 18 9 2 2 2 7 5 5 7 5 5 5 1 7 3 3 4 3 8 4 5 8 8 6 8 7 8 8 3 4 9 8 8 6 3 7 4 6 8 7
18 18 19 20 19 16 5 4 3 1 1 2 6 7 4 1 3 4 4 1 2 3 9 4 5 8 2 7 3 6 10 8 7 4 2 8 7 7 7 5 4 6 5 7 7
17 17 20 18 16 5 5 4 3 3 3 4 3 4 2 3 4 1 3 5 7 5 5 5 4 7 3 5 4 3 0 6 7 3 3 6 1 6 2 5 3 3 3 5 7
19 18 19 19 1 0 2 2 2 2 2 7 6 4 3 3 2 2 1 2 3 6 6 5 3 3 1 6 7 4 9 8 11 5 3 3 3 7 8 7 6 6 4 5 7
19 18 18 13 3 1 2 3 3 2 3 8 4 0 4 3 1 4 2 4 7 7 3 2 6 9 9 5 6 2 4 5 6 5 2 2 4 2 11 7 7 7 6 7 7
18 17 21 6 3 2 3 3 2 3 1 3 2 6 3 5 2 2 2 1 3 8 12 4 1 4 4 5 4 4 6 8 4 3 3 2 4 4 4 7 8 7 7 7 6
14 12 8 8 3 4 3 2 4 5 2 2 1 3 1 3 3 4 3 5 2 4 4 4 4 3 4 1 2 2 3 3 4 3 4 4 3 4 4 5 9 10 8 7 6
12 9 1 2 6 6 2 2 5 1 1 1 1 3 3 4 2 3 2 3 8 5 2 2 2 4 5 4 1 2 4 4 5 4 3 0 5 4 6 7 7 9 8 6 7
14 2 3 2 1 1 2 5 4 3 2 2 1 1 2 3 1 2 4 2 4 7 2 3 1 2 2 3 3 3 1 2 3 2 3 4 2 1 5 5 6 7 7 7 7
3 2 1 4 1 2 2 3 2 4 5 3 2 2 1 2 1 1 2 1 2 3 4 2 3 3 3 3 2 2 2 2 2 3 2 4 2 5 8 9 8 8 8 7 6
2 2 1 2 1 1 3 3 4 2 1 4 4 2 3 2 3 3 3 1 2 2 3 3 4 1 1 3 1 0 1 1 1 3 4 2 5 1 10 10 9 8 8 7 7
3 1 1 2 1 2 2 2 2 5 3 2 3 4 4 3 2 2 3 5 4 4 2 2 1 2 2 3 4 3 4 1 4 3 1 3 5 3 7 9 9 8 7 7 8
3 1 1 0 0 2 1 2 2 2 2 2 2 1 2 3 1 1 1 2 3 4 4 3 1 2 2 1 2 3 4 3 4 2 4 4 5 1 5 8 9 9 7 7 7
3 2 1 2 2 2 3 3 3 0 1 2 2 2 2 3 2 0 2 2 1 2 2 3 3 2 5 2 2 4 5 6 4 2 3 5 2 4 5 6 8 7 6 7 7
2 2 1 2 2 3 3 4 3 3 3 3 3 6 2 1 2 2 3 1 4 4 3 2 2 1 5 2 2 4 6 9 8 8 5 1 5 5 12 11 8 8 7 7 7
3 3 1 1 1 3 4 5 5 1 4 3 3 5 5 3 2 3 3 4 0 2 2 3 2 1 4 3 3 6 9 9 11 12 10 11 13 4 6 8 8 7 7 5 5
1 2 2 1 2 1 1 1 3 6 1 4 4 1 4 2 4 4 2 1 3 1 4 2 2 1 3 1 4 7 11 14 5 5 11 8 6 1 6 9 10 9 8 7 6
Wind_Direction
5 2 1 359 355 354 2 10 21 34 39 33 1 210 207 175 169 173 211 216 203 178 162 225 218 200 249 235 236 242 257 216 223 216 217 125 129 18 78 115 83 47 6 121 130
2 357 355 355 354 354 355 9 22 52 35 27 36 43 185 168 173 185 27 134 118 162 183 208 193 178 221 226 219 211 216 203 234 244 196 137 126 114 154 128 92 91 86 110 132
356 353 350 352 349 351 355 358 16 26 24 20 28 32 44 199 157 171 114 115 134 133 331 28 348 225 219 217 213 217 208 198 226 352 8 142 146 149 196 165 172 154 137 137 144
349 346 348 348 350 349 347 349 348 356 1 357 10 21 54 215 109 51 96 138 125 141 108 122 321 232 206 208 207 206 253 291 107 8 81 134 138 142 237 69 3 148 143 144 156
346 341 345 345 348 349 343 342 344 322 321 336 358 5 331 85 17 108 104 112 123 129 172 132 349 219 204 208 195 230 218 65 53 41 70 112 150 150 100 75 41 128 139 154 159
343 339 339 342 342 346 341 333 322 331 335 320 336 336 12 67 69 81 77 45 73 121 125 125 246 315 260 199 193 200 123 114 116 70 58 119 75 343 81 113 105 123 143 155 149
338 336 336 336 339 344 344 329 313 309 333 356 1 74 72 43 96 81 61 54 28 27 101 199 48 296 292 205 221 177 116 117 140 145 108 92 107 144 113 126 132 141 150 148 160
336 332 335 334 338 342 343 324 300 284 303 343 327 52 72 66 118 65 50 59 42 51 36 326 258 257 258 213 153 146 133 138 143 165 122 178 176 121 160 146 158 148 147 150 159
334 332 331 332 337 337 341 316 298 229 287 331 294 47 65 147 85 81 44 46 6 357 330 246 270 254 251 160 160 200 160 170 137 227 138 201 130 144 161 184 153 148 139 153 136
333 331 329 329 332 333 327 242 243 228 215 212 275 91 111 30 79 66 72 25 356 291 40 252 243 219 200 152 182 193 171 163 137 198 178 193 114 118 168 206 155 163 150 166 164
334 329 328 327 330 338 335 159 229 221 31 48 19 84 58 102 153 128 154 234 347 92 169 236 252 184 178 188 179 150 211 153 106 103 184 185 144 155 154 233 144 189 153 161 175
340 331 327 325 328 337 336 55 52 23 73 61 60 87 70 75 49 57 101 278 235 212 218 88 36 354 178 163 335 263 219 104 66 66 55 184 161 136 149 201 169 174 201 180 165
346 336 327 320 320 323 81 61 333 290 243 74 67 47 343 60 68 53 180 214 252 118 20 93 4 311 298 133 214 20 68 168 127 136 245 108 269 142 120 99 74 13 20 57 70
345 341 333 322 317 326 50 20 310 322 78 4 9 37 314 284 60 103 152 290 36 40 82 46 318 302 286 65 349 70 324 89 123 103 164 69 243 175 152 169 186 168 196 157 122
343 345 335 323 321 32 51 311 303 240 72 332 352 16 282 44 109 14 306 327 45 1 187 343 15 9 49 2 330 128 289 78 93 81 68 216 72 276 137 173 181 161 131 106 105
340 339 337 304 99 40 311 291 260 41 47 352 28 349 110 54 69 161 181 185 349 63 63 96 93 45 15 6 9 191 88 55 72 104 43 354 114 256 184 189 151 134 135 138 125
329 331 344 312 3 354 309 245 33 75 67 338 333 338 42 32 81 23 59 35 38 51 21 28 30 114 17 21 241 303 105 27 21 19 216 293 57 265 122 26 136 145 150 140 165
319 315 219 70 342 330 234 356 70 292 153 190 240 266 85 1 123 58 10 60 31 12 155 127 343 355 353 29 297 73 131 143 168 178 213 285 227 248 98 78 76 110 134 155 128
324 205 256 53 33 327 272 57 8 45 23 308 249 325 137 137 239 161 92 87 45 0 33 122 69 153 76 347 348 230 204 240 108 49 72 201 145 94 128 142 152 153 164 154 124
316 281 104 334 229 199 63 112 75 28 333 258 220 287 90 350 231 6 95 277 101 65 319 64 79 347 116 236 224 338 247 77 7 95 250 269 227 222 187 186 181 170 159 123 99
247 292 98 351 276 304 105 110 135 136 68 321 353 289 52 6 9 10 41 109 42 2 285 5 116 213 308 219 121 19 291 260 104 133 180 189 260 250 195 177 171 174 142 132 126
306 261 147 120 352 317 82 84 4 141 174 208 272 319 339 2 21 99 5 44 3 318 24 62 114 135 96 72 27 328 311 258 126 234 172 152 272 352 186 170 154 149 143 150 148
292 309 172 153 14 100 235 83 332 171 192 208 183 147 358 334 295 69 116 100 35 345 7 5 228 89 345 353 143 247 197 276 76 41 208 141 263 14 133 160 155 151 163 161 155
297 333 133 146 229 124 167 187 168 221 288 309 352 265 208 222 138 3 146 158 51 20 340 337 307 203 181 168 121 196 199 203 153 132 228 217 182 188 197 190 168 168 159 169 164
327 44 60 336 63 10 336 151 165 200 245 208 218 258 235 249 210 185 124 203 205 151 245 263 261 26 280 181 237 232 200 196 200 221 200 309 203 212 195 191 193 185 187 167 172
354 0 270 291 289 276 136 218 216 123 170 218 249 176 178 256 28 34 140 209 101 185 256 161 270 2 273 164 268 276 249 232 214 233 253 263 275 153 119 157 165 165 153 169 171
67 184 252 249 171 274 288 161 224 122 117 346 307 178 225 341 35 35 48 47 18 334 210 254 227 135 275 150 297 293 238 220 222 207 212 221 221 199 170 163 162 170 161 168 147